DW4736 Weather Reports


Display with metric or nautical units.
time (UTC)temp
F
wind
direction
speed
MPH
gust
MPH
rain 1hr
in
rain 24hr
in
rain mn
in
humidity
%
barometer
mb
20210621222620 65 347 0.0 0.0 0.00 0.00 0.00 91 1008.4
20210621222120 65 347 0.0 0.0 0.00 0.00 0.00 91 1008.4
20210621221620 65 347 0.0 0.0 0.00 0.00 0.00 91 1008.4
20210621221123 65 347 0.0 0.0 0.00 0.00 0.00 90 1008.5
20210621220622 66 347 0.0 0.0 0.00 0.00 0.00 90 1008.3
20210621220133 66 347 0.0 0.0 0.00 0.00 0.00 90 1008.3
20210621215618 66 347 0.0 0.0 0.00 0.00 0.00 90 1008.3
20210621215121 66 347 0.0 0.0 0.00 0.00 0.00 89 1008.2
20210621214617 67 347 0.0 0.0 0.00 0.00 0.00 90 1008.1
20210621214117 67 347 0.0 0.0 0.00 0.00 0.00 89 1008.1
20210621213617 67 347 0.0 0.0 0.00 0.00 0.00 90 1008.2
20210621213121 67 347 0.0 0.0 0.00 0.00 0.00 90 1008.2
20210621212619 67 347 0.0 0.0 0.00 0.00 0.00 90 1008.3
20210621212116 67 347 0.0 0.0 0.00 0.00 0.00 89 1008.4
20210621211616 67 347 0.0 0.0 0.00 0.00 0.00 89 1008.4
20210621211120 67 347 0.0 0.0 0.00 0.00 0.00 89 1008.4
20210621210619 67 347 0.0 0.0 0.00 0.00 0.00 89 1008.3
20210621210125 67 347 0.0 0.0 0.00 0.00 0.00 88 1008.3
20210621205619 67 347 0.0 0.0 0.00 0.00 0.00 88 1008.2
20210621205119 67 347 0.0 0.0 0.00 0.00 0.00 88 1008.1
20210621204618 67 347 0.0 0.0 0.00 0.00 0.00 88 1008.0
20210621204122 68 347 0.0 0.0 0.00 0.00 0.00 88 1008.0
20210621203617 68 347 0.0 0.0 0.00 0.00 0.00 88 1008.0
20210621203118 68 347 0.0 0.0 0.00 0.00 0.00 87 1007.9
20210621202607 68 347 0.0 0.0 0.00 0.00 0.00 87 1007.8
20210621202107 68 347 0.0 0.0 0.00 0.00 0.00 87 1007.8
20210621201604 68 347 0.0 0.0 0.00 0.00 0.00 86 1007.7
20210621201103 69 347 0.0 0.0 0.00 0.00 0.00 86 1007.5
20210621200557 69 347 0.0 0.0 0.00 0.00 0.00 86 1007.5
20210621200111 69 347 0.0 0.0 0.00 0.00 0.00 86 1007.5
20210621195559 69 347 0.0 0.0 0.00 0.00 0.00 86 1007.6
20210621195100 69 347 0.0 0.0 0.00 0.00 0.00 86 1007.6
20210621194552 70 347 0.0 0.0 0.00 0.00 0.00 85 1007.6
20210621194052 70 347 0.0 0.0 0.00 0.00 0.00 85 1007.7
20210621193554 71 347 0.0 0.0 0.00 0.00 0.00 84 1007.7
20210621193052 71 347 0.0 0.0 0.00 0.00 0.00 84 1007.6
20210621192549 71 347 0.0 0.0 0.00 0.00 0.00 83 1007.6
20210621192046 71 347 0.0 0.0 0.00 0.00 0.00 83 1007.5
20210621191539 72 347 0.0 0.0 0.00 0.00 0.00 82 1007.4
20210621191040 72 347 0.0 0.0 0.00 0.00 0.00 82 1007.4
20210621190542 73 347 0.0 0.0 0.00 0.00 0.00 81 1007.4
20210621190048 73 347 0.0 1.0 0.00 0.00 0.00 81 1007.4
20210621185541 73 347 0.0 1.0 0.00 0.00 0.00 81 1007.4
20210621185046 73 347 0.0 1.0 0.00 0.00 0.00 80 1007.3
20210621184543 74 347 0.0 1.0 0.00 0.00 0.00 79 1007.5
20210621184049 74 289 0.0 1.0 0.00 0.00 0.00 78 1007.5
20210621183541 75 289 0.0 1.0 0.00 0.00 0.00 77 1007.5
20210621183044 75 293 0.0 0.0 0.00 0.00 0.00 76 1007.5
20210621182537 75 6 0.0 0.0 0.00 0.00 0.00 76 1007.5
20210621182038 76 6 0.0 0.0 0.00 0.00 0.00 76 1007.4
20210621181535 77 6 0.0 0.0 0.00 0.00 0.00 75 1007.4
20210621181041 78 6 0.0 0.0 0.00 0.00 0.00 73 1007.3
20210621180533 78 6 0.0 1.0 0.00 0.00 0.00 72 1007.3
20210621180055 79 27 0.0 2.0 0.00 0.00 0.00 69 1007.2
20210621175538 79 27 1.0 2.0 0.00 0.00 0.00 70 1007.2
20210621175041 78 0 0.0 1.0 0.00 0.00 0.00 72 1007.1
20210621174537 78 0 0.0 0.0 0.00 0.00 0.00 72 1007.3
20210621174042 78 37 0.0 0.0 0.00 0.00 0.00 72 1007.3
20210621173534 78 37 0.0 0.0 0.00 0.00 0.00 71 1007.3
20210621173035 78 37 0.0 0.0 0.00 0.00 0.00 71 1007.2
20210621172528 79 37 0.0 0.0 0.00 0.00 0.00 70 1007.1
20210621172034 79 37 0.0 0.0 0.00 0.00 0.00 69 1007.1
20210621171528 79 37 0.0 0.0 0.00 0.00 0.00 68 1007.0
20210621171042 80 37 0.0 1.0 0.00 0.00 0.00 65 1006.9
20210621170528 81 37 0.0 1.0 0.00 0.00 0.00 64 1006.9
20210621170059 81 37 0.0 1.0 0.00 0.00 0.00 61 1006.9
20210621165525 82 10 0.0 1.0 0.00 0.00 0.00 58 1006.8
20210621165026 83 6 0.0 5.0 0.00 0.00 0.00 53 1006.7
20210621164524 84 4 1.0 5.0 0.00 0.00 0.00 51 1006.6
20210621164032 84 27 0.0 5.0 0.00 0.00 0.00 49 1006.6
20210621163522 85 358 1.0 6.0 0.00 0.00 0.00 50 1006.6
20210621163025 85 344 1.0 6.0 0.00 0.00 0.00 50 1006.6
20210621162522 85 1 1.0 7.0 0.00 0.00 0.00 51 1006.6
20210621162022 85 347 3.0 6.0 0.00 0.00 0.00 50 1006.5
20210621161522 85 0 2.0 6.0 0.00 0.00 0.00 51 1006.4
20210621161024 85 357 2.0 9.0 0.00 0.00 0.00 51 1006.4
20210621160521 85 0 4.0 9.0 0.00 0.00 0.00 49 1006.4
20210621160038 85 7 1.0 3.0 0.00 0.00 0.00 51 1006.3
20210621155521 84 358 0.0 3.0 0.00 0.00 0.00 51 1006.4
20210621155021 84 348 1.0 4.0 0.00 0.00 0.00 50 1006.5
20210621154521 84 336 1.0 4.0 0.00 0.00 0.00 51 1006.5
20210621154028 84 330 1.0 6.0 0.00 0.00 0.00 50 1006.4
20210621153526 85 310 2.0 6.0 0.00 0.00 0.00 48 1006.5
20210621153028 85 336 1.0 10.0 0.00 0.00 0.00 47 1006.5
20210621152525 86 334 4.0 10.0 0.00 0.00 0.00 46 1006.5
20210621152030 87 353 1.0 7.0 0.00 0.00 0.00 47 1006.5
20210621151525 88 209 1.0 7.0 0.00 0.00 0.00 44 1006.4
20210621151016 88 288 1.0 6.0 0.00 0.00 0.00 47 1006.4
20210621150519 88 10 2.0 10.0 0.00 0.00 0.00 44 1006.4
20210621150032 88 286 2.0 11.0 0.00 0.00 0.00 46 1006.4
20210621145515 88 298 3.0 11.0 0.00 0.00 0.00 46 1006.4
20210621145014 88 18 2.0 10.0 0.00 0.00 0.00 45 1006.3
20210621144520 88 340 4.0 10.0 0.00 0.00 0.00 46 1006.3
20210621144014 88 11 4.0 10.0 0.00 0.00 0.00 46 1006.4
20210621143515 88 295 6.0 11.0 0.00 0.00 0.00 45 1006.3
20210621143017 88 185 2.0 11.0 0.00 0.00 0.00 47 1006.2
20210621142516 88 320 3.0 10.0 0.00 0.00 0.00 46 1006.2
20210621142002 88 21 2.0 10.0 0.00 0.00 0.00 45 1006.2
20210621141502 88 0 4.0 10.0 0.00 0.00 0.00 45 1006.3
20210621141000 88 0 3.0 11.0 0.00 0.00 0.00 48 1006.3
20210621140502 88 348 3.0 11.0 0.00 0.00 0.00 47 1006.2
20210621135959 88 334 4.0 10.0 0.00 0.00 0.00 49 1006.3
20210621135500 88 0 3.0 10.0 0.00 0.00 0.00 47 1006.2
20210621135001 88 338 3.0 7.0 0.00 0.00 0.00 50 1006.2
20210621134457 88 345 2.0 7.0 0.00 0.00 0.00 48 1006.1
20210621133956 88 327 3.0 7.0 0.00 0.00 0.00 48 1006.1
20210621133454 87 7 2.0 11.0 0.00 0.00 0.00 48 1006.1
20210621132955 87 0 4.0 11.0 0.00 0.00 0.00 50 1006.2
20210621132451 87 340 6.0 11.0 0.00 0.00 0.00 51 1006.2
20210621131953 87 341 6.0 11.0 0.00 0.00 0.00 50 1006.2
20210621131449 86 4 2.0 5.0 0.00 0.00 0.00 55 1006.1
20210621130949 86 18 1.0 3.0 0.00 0.00 0.00 55 1006.2
20210621130447 84 313 0.0 2.0 0.00 0.00 0.00 55 1006.2
20210621125947 84 37 0.0 4.0 0.00 0.00 0.00 56 1006.2
20210621125448 85 4 0.0 4.0 0.00 0.00 0.00 54 1006.3
20210621124944 87 307 1.0 6.0 0.00 0.00 0.00 51 1006.3
20210621124445 88 7 2.0 7.0 0.00 0.00 0.00 53 1006.2
20210621123944 86 314 3.0 7.0 0.00 0.00 0.00 54 1006.0
20210621123442 85 214 1.0 7.0 0.00 0.00 0.00 55 1006.2
20210621122943 85 0 1.0 7.0 0.00 0.00 0.00 55 1006.3
20210621122443 86 290 2.0 12.0 0.00 0.00 0.00 53 1006.3
20210621121946 86 51 5.0 12.0 0.00 0.00 0.00 52 1006.4
20210621121442 87 314 2.0 6.0 0.00 0.00 0.00 53 1006.4
20210621120942 87 124 1.0 11.0 0.00 0.00 0.00 50 1006.4
20210621120443 88 221 5.0 11.0 0.00 0.00 0.00 51 1006.4
20210621115941 87 39 5.0 11.0 0.00 0.00 0.00 51 1006.4
20210621115437 87 303 4.0 15.0 0.00 0.00 0.00 50 1006.3
20210621114937 87 38 3.0 15.0 0.00 0.00 0.00 49 1006.3
20210621114440 87 292 4.0 12.0 0.00 0.00 0.00 55 1006.2
20210621113941 87 41 4.0 12.0 0.00 0.00 0.00 50 1006.2
20210621113436 87 266 6.0 13.0 0.00 0.00 0.00 51 1006.3
20210621112938 87 299 6.0 13.0 0.00 0.00 0.00 49 1006.4
20210621112434 86 319 4.0 12.0 0.00 0.00 0.00 52 1006.4
20210621111935 86 0 4.0 7.0 0.00 0.00 0.00 52 1006.5
20210621111433 86 274 1.0 9.0 0.00 0.00 0.00 54 1006.5
20210621110931 86 0 1.0 9.0 0.00 0.00 0.00 54 1006.4
20210621110431 85 340 5.0 9.0 0.00 0.00 0.00 56 1006.5
20210621105934 85 300 1.0 6.0 0.00 0.00 0.00 58 1006.6
20210621105435 85 292 2.0 5.0 0.00 0.00 0.00 61 1006.6
20210621104928 85 288 0.0 5.0 0.00 0.00 0.00 58 1006.6
20210621104430 85 13 1.0 6.0 0.00 0.00 0.00 62 1006.7
20210621103930 85 307 3.0 6.0 0.00 0.00 0.00 62 1006.7
20210621103430 84 24 2.0 6.0 0.00 0.00 0.00 63 1006.7
20210621102927 84 228 1.0 6.0 0.00 0.00 0.00 62 1006.6
20210621102429 84 340 0.0 9.0 0.00 0.00 0.00 61 1006.7
20210621101926 84 257 2.0 9.0 0.00 0.00 0.00 61 1006.7
20210621101425 84 89 0.0 5.0 0.00 0.00 0.00 66 1006.7
20210621100929 83 321 2.0 7.0 0.00 0.00 0.00 64 1006.7
20210621100424 84 317 4.0 7.0 0.00 0.00 0.00 65 1006.6
20210621095922 83 354 2.0 10.0 0.00 0.00 0.00 67 1006.7
20210621095422 82 8 5.0 10.0 0.00 0.00 0.00 66 1006.8
20210621094920 82 8 2.0 9.0 0.00 0.00 0.00 66 1006.8
20210621094419 83 34 4.0 9.0 0.00 0.00 0.00 63 1006.8
20210621093920 83 285 2.0 10.0 0.00 0.00 0.00 64 1006.7
20210621093421 82 300 2.0 10.0 0.00 0.00 0.00 68 1006.6
20210621092920 82 350 4.0 11.0 0.00 0.00 0.00 67 1006.6
20210621092423 82 48 5.0 11.0 0.00 0.00 0.00 67 1006.6
20210621091918 81 327 3.0 9.0 0.00 0.00 0.00 66 1006.7
20210621091419 81 21 3.0 7.0 0.00 0.00 0.00 68 1006.7
20210621090914 80 334 2.0 11.0 0.00 0.00 0.00 67 1006.7
20210621090417 80 31 5.0 11.0 0.00 0.00 0.00 67 1006.7
20210621085915 80 14 1.0 10.0 0.00 0.00 0.00 68 1006.7
20210621085417 80 283 5.0 10.0 0.00 0.00 0.00 68 1006.7
20210621084914 80 1 4.0 7.0 0.00 0.00 0.00 67 1006.8
20210621084414 80 31 2.0 7.0 0.00 0.00 0.00 66 1006.7
20210621083915 80 0 4.0 10.0 0.00 0.00 0.00 67 1006.7
20210621083416 80 343 5.0 12.0 0.00 0.00 0.00 66 1006.7
20210621082912 80 306 5.0 12.0 0.00 0.00 0.00 65 1006.6
20210621082414 80 330 1.0 10.0 0.00 0.00 0.00 65 1006.6
20210621081910 80 347 2.0 10.0 0.00 0.00 0.00 65 1006.5
20210621081412 82 1 2.0 10.0 0.00 0.00 0.00 63 1006.5
20210621080908 82 3 1.0 9.0 0.00 0.00 0.00 68 1006.4
20210621080409 81 340 4.0 9.0 0.00 0.00 0.00 70 1006.3
20210621075906 80 337 0.0 5.0 0.00 0.00 0.00 73 1006.3
20210621075406 79 255 2.0 5.0 0.00 0.00 0.00 73 1006.3
20210621074905 79 299 1.0 5.0 0.00 0.00 0.00 74 1006.3
20210621074405 79 317 3.0 6.0 0.00 0.00 0.00 73 1006.1
20210621073907 79 290 4.0 6.0 0.00 0.00 0.00 73 1006.1
20210621073406 79 334 3.0 5.0 0.00 0.00 0.00 74 1006.0
20210621072906 79 292 0.0 6.0 0.00 0.00 0.00 74 1006.1
20210621072407 78 4 2.0 6.0 0.00 0.00 0.00 75 1006.1
20210621071906 78 195 0.0 0.0 0.00 0.00 0.00 77 1006.0
20210621071406 78 195 0.0 0.0 0.00 0.00 0.00 81 1005.8
20210621070905 78 227 0.0 0.0 0.00 0.00 0.00 81 1005.7
20210621070406 77 227 0.0 0.0 0.00 0.00 0.00 79 1005.6
20210621065903 77 227 0.0 1.0 0.00 0.00 0.00 77 1005.6
20210621065404 77 152 0.0 1.0 0.00 0.00 0.00 78 1005.5
20210621064903 77 0 0.0 1.0 0.00 0.00 0.00 79 1005.6
20210621064404 78 0 0.0 2.0 0.00 0.00 0.00 78 1005.6
20210621063904 78 155 0.0 2.0 0.00 0.00 0.00 77 1005.4
20210621063405 78 158 0.0 0.0 0.00 0.00 0.00 76 1005.4
20210621062903 78 151 0.0 0.0 0.00 0.00 0.00 75 1005.3
20210621062401 78 42 0.0 0.0 0.00 0.00 0.00 76 1005.3
20210621061859 78 142 0.0 1.0 0.00 0.00 0.00 75 1005.3
20210621061401 77 142 0.0 1.0 0.00 0.00 0.00 77 1005.4
20210621060900 77 165 1.0 2.0 0.00 0.00 0.00 77 1005.4
20210621060405 76 202 0.0 2.0 0.00 0.00 0.00 80 1005.4
20210621055859 76 173 0.0 1.0 0.00 0.00 0.00 80 1005.4
20210621055358 75 182 0.0 0.0 0.00 0.00 0.00 82 1005.5
20210621054857 75 182 0.0 1.0 0.00 0.00 0.00 82 1005.6
20210621054357 75 182 0.0 1.0 0.00 0.00 0.00 82 1005.5
20210621053858 74 214 1.0 1.0 0.00 0.00 0.00 82 1005.5
20210621053357 74 106 0.0 0.0 0.00 0.00 0.00 85 1005.5
20210621052857 73 186 0.0 0.0 0.00 0.00 0.00 85 1005.3
20210621052359 72 186 0.0 0.0 0.00 0.00 0.00 88 1005.4
20210621051856 72 186 0.0 0.0 0.00 0.00 0.00 89 1005.4
20210621051350 71 186 0.0 0.0 0.00 0.00 0.00 89 1005.5
20210621050854 71 186 0.0 0.0 0.00 0.00 0.00 89 1005.5
20210621050351 70 186 0.0 0.0 0.00 0.00 0.00 90 1005.7
20210621045854 70 351 0.0 0.0 0.00 0.00 0.00 90 1005.7
20210621045346 69 351 0.0 0.0 0.00 0.00 0.00 91 1005.8
20210621044846 69 351 0.0 0.0 0.00 0.00 0.00 91 1005.8
20210621044344 69 351 0.0 0.0 0.00 0.00 0.00 91 1005.8
20210621043843 69 351 0.0 0.0 0.00 0.00 0.00 91 1005.8
20210621043342 69 351 0.0 0.0 0.00 0.00 0.00 91 1005.8
20210621042843 69 351 0.0 0.0 0.00 0.00 0.00 91 1005.9
20210621042341 69 351 0.0 0.0 0.00 0.00 0.00 90 1005.8
20210621041840 69 351 0.0 0.0 0.00 0.00 0.00 90 1005.8
20210621041345 69 351 0.0 0.0 0.00 0.00 0.00 90 1005.8
20210621040839 69 351 0.0 0.0 0.00 0.00 0.00 90 1006.0
20210621040339 69 351 0.0 0.0 0.00 0.00 0.00 90 1006.1
20210621035838 69 351 0.0 0.0 0.00 0.00 0.00 90 1006.1
20210621035343 69 351 0.0 0.0 0.00 0.00 0.00 90 1005.9
20210621034836 69 351 0.0 0.0 0.00 0.00 0.00 90 1006.0
20210621034336 69 351 0.0 0.0 0.00 0.00 0.00 89 1006.1
20210621033839 69 351 0.0 0.0 0.00 0.00 0.00 89 1006.1
20210621033337 69 351 0.0 0.0 0.00 0.00 0.00 89 1006.2
20210621032836 69 351 0.0 0.0 0.00 0.00 0.00 88 1006.1
20210621032335 69 351 0.0 0.0 0.00 0.00 0.00 87 1006.2
20210621031832 70 351 0.0 0.0 0.00 0.00 0.00 87 1006.3
20210621031334 70 351 0.0 0.0 0.00 0.00 0.00 86 1006.4
20210621030837 70 351 0.0 0.0 0.00 0.00 0.00 85 1006.5
20210621030333 71 351 0.0 0.0 0.00 0.00 0.00 84 1006.6
20210621025832 71 351 0.0 0.0 0.00 0.00 0.00 83 1006.6
20210621025336 72 351 0.0 0.0 0.00 0.00 0.00 81 1006.6
20210621024831 72 290 0.0 1.0 0.00 0.00 0.00 81 1006.7
20210621024331 73 227 0.0 5.0 0.00 0.00 0.00 80 1006.9
20210621023833 73 317 2.0 6.0 0.00 0.00 0.00 80 1006.8
20210621023331 72 290 2.0 6.0 0.00 0.00 0.00 84 1006.8
20210621022834 72 330 0.0 2.0 0.00 0.00 0.00 86 1006.9
20210621022326 72 250 0.0 7.0 0.00 0.00 0.00 86 1007.1
20210621021826 71 298 2.0 7.0 0.00 0.00 0.00 89 1007.0
20210621021326 70 271 0.0 5.0 0.00 0.00 0.00 91 1007.2
20210621020824 69 309 0.0 0.0 0.00 0.00 0.00 91 1006.8
20210621020321 69 0 0.0 0.0 0.00 0.00 0.00 91 1006.7
20210621015821 69 0 0.0 0.0 0.00 0.00 0.00 91 1006.6
20210621015320 69 0 0.0 0.0 0.00 0.00 0.00 91 1006.5
20210621014819 69 0 0.0 0.0 0.00 0.00 0.00 91 1006.5
20210621014323 70 0 0.0 0.0 0.00 0.00 0.00 91 1006.5
20210621013821 69 0 0.0 0.0 0.00 0.00 0.00 91 1006.5
20210621013321 70 0 0.0 0.0 0.00 0.00 0.00 90 1006.5
20210621012824 70 0 0.0 0.0 0.00 0.00 0.00 90 1006.4
20210621012312 70 0 0.0 0.0 0.00 0.00 0.00 91 1006.4
20210621011809 69 0 0.0 0.0 0.00 0.00 0.00 91 1006.4
20210621011306 69 0 0.0 0.0 0.00 0.00 0.00 91 1006.3
20210621010804 69 0 0.0 0.0 0.00 0.00 0.00 91 1006.0
20210621010308 69 0 0.0 0.0 0.00 0.00 0.00 91 1005.9
20210621005805 69 0 0.0 0.0 0.00 0.00 0.00 91 1005.7
20210621005306 69 0 0.0 0.0 0.00 0.00 0.00 90 1005.6
20210621004805 69 0 0.0 0.0 0.00 0.00 0.00 90 1005.7
20210621004307 69 0 0.0 0.0 0.00 0.00 0.00 91 1005.7
20210621003804 69 0 0.0 0.0 0.00 0.00 0.00 91 1005.7
20210621003302 68 0 0.0 0.0 0.00 0.00 0.00 91 1005.6
20210621002803 68 0 0.0 0.0 0.00 0.00 0.00 91 1005.5
20210621002306 68 0 0.0 0.0 0.00 0.00 0.00 91 1005.4
20210621001804 68 0 0.0 0.0 0.00 0.00 0.00 91 1005.3
20210621001305 68 0 0.0 0.0 0.00 0.00 0.00 91 1005.0
20210621000803 68 0 0.0 0.0 0.00 0.00 0.00 91 1005.1
20210621000305 68 0 0.0 0.0 0.00 0.00 0.00 91 1005.1
20210620235806 68 0 0.0 0.0 0.00 0.00 0.00 91 1005.0
20210620235305 68 0 0.0 0.0 0.00 0.00 0.00 92 1005.1
20210620234802 67 0 0.0 0.0 0.00 0.00 0.00 92 1005.1
20210620234303 67 0 0.0 0.0 0.00 0.00 0.00 92 1005.1
20210620233807 67 0 0.0 0.0 0.00 0.00 0.00 93 1005.3
20210620233306 67 0 0.0 0.0 0.00 0.00 0.00 93 1005.5
20210620232800 67 128 0.0 0.0 0.00 0.00 0.00 93 1005.8
20210620232259 67 128 0.0 0.0 0.00 0.00 0.00 93 1006.0
20210620231802 67 128 0.0 0.0 0.00 0.00 0.00 93 1006.3
20210620231249 67 128 0.0 0.0 0.00 0.00 0.00 93 1006.4
20210620230747 67 128 0.0 0.0 0.00 0.00 0.00 93 1006.5
20210620230244 67 128 0.0 0.0 0.00 0.00 0.00 93 1006.4
20210620225747 67 128 0.0 0.0 0.00 0.00 0.00 92 1006.3
20210620225244 67 128 0.0 0.0 0.00 0.00 0.00 92 1006.3
20210620224745 67 128 0.0 0.0 0.00 0.00 0.00 92 1006.3
20210620224246 67 128 0.0 0.0 0.00 0.00 0.00 92 1006.2
20210620223743 67 128 0.0 0.0 0.00 0.00 0.00 92 1006.2
20210620223243 67 128 0.0 0.0 0.00 0.00 0.00 92 1006.3